[[{"header":{"parameterUnit":"m.s-1","parameterCategory":1,"la1":30.2991,"la2":30.254,"lo1":-89.0895,"lo2":-89.0444,"dy":0.0017,"dx":0.0017,"nx":28,"ny":28,"refTime":"2025-01-01T03:00:00:Z","depth":0,"parameterNumber":2,"parameterNumberName":"U-component_of_WINDS"},"data":[0,0,0,0,0,0,0,0,0,0,0,0,0,0,0,0,0,0,0,0,0,0,0,0,0,0,0,0,0,0,0,0,0,0,0,0,0,0,0,0,0,0,0,0,0,0,0,0,0,0,0,0,0,0,0,0,0,0,-1.5939,-1.594,0,-1.6026,-1.6027,-1.6028,-1.5967,-1.5964,-1.5962,-1.5959,-1.6053,-1.6057,-1.6062,0,0,0,0,0,0,0,0,0,0,0,0,0,-1.5724,-1.5728,-1.5939,-1.594,-1.5941,-1.6026,-1.6027,-1.6029,-1.5968,-1.5964,-1.5961,-1.5958,-1.6051,-1.6057,-1.6063,0,0,0,0,0,0,0,0,0,0,0,0,0,-1.5815,-1.5729,-1.5939,-1.5921,-1.592,-1.6026,-1.6027,-1.6029,-1.5968,-1.5964,-1.596,-1.5956,-1.6049,-1.6056,-1.6064,-1.6193,0,0,-1.6087,-1.609,0,0,0,0,0,0,0,0,-1.581,-1.5823,-1.5923,-1.5922,-1.5922,-1.5982,-1.5986,-1.6084,-1.5969,-1.595,-1.5959,-1.5954,-1.6033,-1.6041,-1.6067,-1.6198,-1.6202,-1.6088,-1.6092,-1.6095,-1.6098,0,0,0,0,0,0,0,-1.5804,-1.5819,-1.5974,-1.5924,-1.5924,-1.591,-1.5918,-1.6004,-1.6014,-1.5952,-1.5947,-1.5958,-1.6032,-1.606,-1.6069,-1.6203,-1.6087,-1.6094,-1.6099,-1.6102,-1.6445,-1.645,0,0,0,0,0,0,-1.5798,-1.5814,-1.5971,-1.5976,-1.5854,-1.5917,-1.5926,-1.5967,-1.6012,-1.6015,-1.5962,-1.5955,-1.6049,-1.606,-1.6072,-1.6228,-1.6095,-1.6103,-1.6107,-1.6441,-1.6446,-1.6451,0,0,0,0,0,0,-1.5794,-1.5813,-1.5967,-1.5894,-1.5913,-1.5925,-1.5971,-1.5971,-1.5998,-1.602,-1.6022,-1.5988,-1.6046,-1.6061,-1.6163,-1.623,-1.6106,-1.6113,-1.6435,-1.6442,-1.6449,-1.654,0,0,0,0,0,0,-1.5788,-1.5812,-1.586,-1.5895,-1.5917,-1.6057,-1.5975,-1.5975,-1.6011,-1.6003,-1.6046,-1.6049,-1.6044,-1.6152,-1.6171,-1.6238,-1.6119,-1.643,-1.6439,-1.6447,-1.6531,-1.6549,-1.6564,0,0,0,0,0,-1.578,-1.5883,-1.5863,-1.5882,-1.5978,-1.6061,-1.6073,-1.6065,-1.6017,-1.6067,-1.608,-1.6047,-1.6219,-1.6163,-1.6184,-1.6254,-1.6425,-1.6436,-1.6446,-1.6524,-1.6546,-1.6564,0,0,0,0,0,0,-1.5857,-1.5888,-1.5866,-1.5982,-1.6019,-1.6051,-1.6113,-1.6088,-1.614,-1.6131,-1.6119,-1.6129,-1.6237,-1.6255,-1.6193,-1.6382,-1.6315,-1.633,-1.6367,-1.6388,-1.6404,-1.6399,-1.6125,0,0,0,0,0,-1.5887,-1.5951,-1.5975,-1.6076,-1.6095,-1.6101,-1.6137,-1.6127,-1.6165,-1.6181,-1.6202,-1.6242,-1.6305,-1.6347,-1.6406,-1.6532,-1.6542,-1.6591,-1.6607,-1.6621,-1.6635,-1.6705,-1.6728,-1.6485,-1.6485,-1.6485,0,0,-1.5951,-1.5976,-1.6017,-1.6092,-1.6119,-1.6187,-1.6115,-1.619,-1.6241,-1.6193,-1.6291,-1.6308,-1.6351,-1.6467,-1.6519,-1.6486,-1.6703,-1.6634,-1.6645,-1.6652,-1.6718,-1.6741,-1.6761,-1.6492,-1.6491,-1.649,0,0,-1.6103,-1.6127,-1.6214,-1.6243,-1.6285,-1.6287,-1.6308,-1.6343,-1.6352,-1.645,-1.6416,-1.6476,-1.6584,-1.6617,-1.6648,-1.6811,-1.6783,-1.683,-1.6919,-1.6987,-1.7006,-1.7023,-1.7083,-1.7105,-1.6843,-1.6844,-1.6844,0,-1.6178,-1.6278,-1.6263,-1.634,-1.6375,-1.6332,-1.6422,-1.645,-1.651,-1.6536,-1.6497,-1.6632,-1.6658,-1.6781,-1.6821,-1.6846,-1.6872,-1.6827,-1.7004,-1.7021,-1.7037,-1.7094,-1.7117,-1.6849,-1.6849,-1.6848,-1.6847,0,-1.6369,-1.6438,-1.6504,-1.6562,-1.6603,-1.6686,-1.6685,-1.6729,-1.6714,-1.6722,-1.6823,-1.6852,-1.6917,-1.6944,-1.6931,-1.7066,-1.7045,-1.7005,-1.6938,-1.7066,-1.712,-1.7141,-1.6857,-1.6855,-1.6854,-1.6852,0,0,-1.6574,-1.6621,-1.6646,-1.6672,-1.6714,-1.6768,-1.6849,-1.6911,-1.695,-1.6992,-1.7062,-1.7153,-1.7117,-1.7152,-1.7142,-1.7201,-1.7331,-1.7155,-1.7155,-1.7189,-1.7484,-1.7515,-1.7541,-1.7311,-1.7315,-1.7318,-1.7481,0,-1.673,-1.6871,-1.686,-1.6994,-1.7059,-1.7018,-1.7089,-1.7124,-1.7132,-1.719,-1.7199,-1.7266,-1.7211,-1.7232,-1.7289,-1.7303,-1.739,-1.7291,-1.7378,-1.7381,-1.7372,-1.7569,-1.7602,-1.7755,-1.7501,-1.7505,-1.7508,0,-1.6932,-1.698,-1.712,-1.7153,-1.718,-1.7244,-1.73,-1.7354,-1.7392,-1.7394,-1.7433,-1.7413,-1.7496,-1.7424,-1.7539,-1.7472,-1.7506,-1.7518,-1.7524,-1.7535,-1.7455,-1.7588,-1.7803,-1.7827,-1.754,-1.7538,-1.7535,0,-1.7071,-1.7171,-1.7268,-1.729,-1.733,-1.7377,-1.7395,-1.7429,-1.7467,-1.7516,-1.7541,-1.7599,-1.7632,-1.7678,-1.7674,-1.7621,-1.7792,-1.7719,-1.7799,-1.7799,-1.7839,-1.7838,-1.8066,-1.7856,-1.7856,-1.7856,-1.7855,0,-1.7249,-1.7337,-1.7331,-1.7391,-1.7489,-1.7474,-1.7572,-1.7585,-1.7616,-1.7679,-1.7646,-1.7707,-1.7696,-1.7757,-1.7754,-1.7852,-1.7866,-1.7872,-1.7871,-1.7877,-1.7876,-1.7902,-1.7892,-1.7862,-1.786,-1.7859,-1.7858,0,-1.7423,-1.7422,-1.7525,-1.7553,-1.7563,-1.7634,-1.7659,-1.7716,-1.772,-1.7801,-1.7819,-1.7827,-1.7897,-1.7896,-1.7976,-1.7974,-1.8094,-1.8079,-1.8082,-1.808,-1.816,-1.8154,-1.8416,-1.845,-1.8215,-1.8217,-1.8219,0,-1.7538,-1.7604,-1.7639,-1.7679,-1.77,-1.7764,-1.7802,-1.7789,-1.7831,-1.7879,-1.7931,-1.7997,-1.8049,-1.8162,-1.8177,-1.8237,-1.8226,-1.8313,-1.8235,-1.8239,-1.8231,-1.8228,-1.8235,-1.833,-1.8332,-1.8334,-1.8336,0,-1.7743,-1.7739,-1.7794,-1.785,-1.7896,-1.7939,-1.7979,-1.8014,-1.8006,-1.8054,-1.8124,-1.8164,-1.8244,-1.8311,-1.837,-1.839,-1.8364,-1.836,-1.8382,-1.8391,-1.839,-1.8394,-1.8127,-1.8355,-1.8353,-1.8352,-1.8351,-1.835,-1.7893,-1.7951,-1.7984,-1.8047,-1.8076,-1.8114,-1.8169,-1.818,-1.8238,-1.8302,-1.829,-1.8369,-1.8405,-1.8481,-1.8506,-1.8569,-1.8538,-1.857,-1.8578,-1.8587,-1.8597,-1.8377,-1.8579,-1.8578,-1.8578,-1.8577,-1.8577,0,-1.8099,-1.8118,-1.8176,-1.8232,-1.8282,-1.8249,-1.8291,-1.8336,-1.8405,-1.844,-1.8492,-1.8573,-1.8637,-1.8655,-1.8717,-1.8764,-1.8753,-1.8781,-1.8779,-1.8785,-1.8619,-1.8595,-1.8789,-1.8789,-1.8789,-1.8789,-1.8789,-1.8789,-1.8212,-1.8309,-1.8309,-1.8419,-1.8437,-1.8513,-1.8541,-1.8576,-1.8604,-1.8695,-1.8748,-1.8758,-1.8788,-1.8851,-1.8909,-1.8913,-1.8939,-1.8972,-1.8972,-1.8817,-1.8796,-1.8776,-1.8754,-1.8977,-1.8978,-1.9132,-1.9134,-1.9135]},{"header":{"parameterUnit":"m.s-1","parameterCategory":1,"la1":30.2991,"la2":30.254,"lo1":-89.0895,"lo2":-89.0444,"dy":0.0017,"dx":0.0017,"nx":28,"ny":28,"refTime":"2025-01-01T03:00:00:Z","depth":0,"parameterNumber":3,"parameterNumberName":"V-component_of_WINDS"},"data":[0,0,0,0,0,0,0,0,0,0,0,0,0,0,0,0,0,0,0,0,0,0,0,0,0,0,0,0,0,0,0,0,0,0,0,0,0,0,0,0,0,0,0,0,0,0,0,0,0,0,0,0,0,0,0,0,0,0,-4.1775,-4.1776,0,-4.1884,-4.1885,-4.1886,-4.1826,-4.1823,-4.182,-4.1817,-4.1926,-4.1932,-4.1937,0,0,0,0,0,0,0,0,0,0,0,0,0,-4.1511,-4.1517,-4.1775,-4.1776,-4.1778,-4.1884,-4.1885,-4.1887,-4.1826,-4.1823,-4.1819,-4.1815,-4.1924,-4.1931,-4.1938,0,0,0,0,0,0,0,0,0,0,0,0,0,-4.1624,-4.1518,-4.1775,-4.176,-4.176,-4.1883,-4.1885,-4.1887,-4.1827,-4.1822,-4.1818,-4.1814,-4.1922,-4.193,-4.1939,-4.2082,0,0,-4.1965,-4.1969,0,0,0,0,0,0,0,0,-4.1617,-4.1633,-4.1761,-4.1761,-4.1761,-4.1837,-4.1832,-4.1952,-4.1828,-4.1802,-4.1817,-4.1812,-4.19,-4.191,-4.194,-4.2087,-4.2091,-4.1966,-4.1971,-4.1974,-4.1977,0,0,0,0,0,0,0,-4.161,-4.1628,-4.1818,-4.1763,-4.1763,-4.1747,-4.1758,-4.1855,-4.1874,-4.1803,-4.1799,-4.1813,-4.1899,-4.1932,-4.1942,-4.2093,-4.1965,-4.1973,-4.1978,-4.1982,-4.2361,-4.2366,0,0,0,0,0,0,-4.1603,-4.1622,-4.1814,-4.1821,-4.1677,-4.1756,-4.1768,-4.1817,-4.1873,-4.1878,-4.1817,-4.181,-4.192,-4.1932,-4.1946,-4.2117,-4.1974,-4.1982,-4.1987,-4.2356,-4.2362,-4.2368,0,0,0,0,0,0,-4.1598,-4.1621,-4.181,-4.1721,-4.1744,-4.1765,-4.1821,-4.1822,-4.1854,-4.1883,-4.1886,-4.1847,-4.1917,-4.1934,-4.2048,-4.212,-4.1986,-4.1994,-4.235,-4.2358,-4.2365,-4.246,0,0,0,0,0,0,-4.159,-4.1619,-4.1675,-4.1722,-4.1749,-4.1912,-4.1825,-4.1827,-4.187,-4.1862,-4.1913,-4.1917,-4.1914,-4.2036,-4.2057,-4.2129,-4.2001,-4.2344,-4.2354,-4.2363,-4.245,-4.2469,-4.2486,0,0,0,0,0,-4.1581,-4.1697,-4.1678,-4.1701,-4.1818,-4.1916,-4.1931,-4.1927,-4.1876,-4.1931,-4.1949,-4.1915,-4.2108,-4.2048,-4.2071,-4.2147,-4.234,-4.2351,-4.2362,-4.2442,-4.2466,-4.2485,0,0,0,0,0,0,-4.1656,-4.1703,-4.1682,-4.1817,-4.1863,-4.1906,-4.1976,-4.1952,-4.2013,-4.2003,-4.1993,-4.2005,-4.2125,-4.2147,-4.2079,-4.2288,-4.2216,-4.2232,-4.2269,-4.2291,-4.2309,-4.2301,-4.2008,0,0,0,0,0,-4.1688,-4.1765,-4.1801,-4.1916,-4.194,-4.1954,-4.1997,-4.1989,-4.2036,-4.2055,-4.2082,-4.2129,-4.2199,-4.2247,-4.2313,-4.2453,-4.2463,-4.2516,-4.2534,-4.2548,-4.2563,-4.2637,-4.2661,-4.2404,-4.2404,-4.2404,0,0,-4.1756,-4.1791,-4.1839,-4.1932,-4.1967,-4.2046,-4.1971,-4.2057,-4.2115,-4.2068,-4.2178,-4.22,-4.225,-4.2378,-4.2435,-4.24,-4.2636,-4.2562,-4.2574,-4.258,-4.2651,-4.2676,-4.2697,-4.2412,-4.241,-4.2409,0,0,-4.1919,-4.1953,-4.2052,-4.2089,-4.2143,-4.2151,-4.2175,-4.2222,-4.2234,-4.2345,-4.2311,-4.2379,-4.2501,-4.2539,-4.2574,-4.2751,-4.2721,-4.2772,-4.2865,-4.2938,-4.2959,-4.2976,-4.3039,-4.3062,-4.2786,-4.2787,-4.2787,0,-4.1995,-4.2113,-4.2106,-4.2196,-4.2237,-4.2198,-4.2299,-4.2334,-4.2407,-4.2436,-4.2396,-4.2548,-4.258,-4.2715,-4.2758,-4.2788,-4.2815,-4.2767,-4.2956,-4.2974,-4.2991,-4.3051,-4.3074,-4.2792,-4.2792,-4.2791,-4.2791,0,-4.2205,-4.2287,-4.2361,-4.2433,-4.2482,-4.2577,-4.2583,-4.2634,-4.2622,-4.2634,-4.2746,-4.2782,-4.2856,-4.2887,-4.2876,-4.3021,-4.2998,-4.2957,-4.2885,-4.3021,-4.3077,-4.31,-4.2801,-4.2799,-4.2797,-4.2796,0,0,-4.2419,-4.2486,-4.2513,-4.2545,-4.2602,-4.2664,-4.2756,-4.2829,-4.2872,-4.2923,-4.3,-4.3104,-4.3067,-4.3107,-4.3099,-4.3163,-4.33,-4.3114,-4.3115,-4.3148,-4.3462,-4.3492,-4.3519,-4.328,-4.3285,-4.3288,-4.3457,0,-4.2586,-4.2748,-4.2744,-4.2894,-4.2969,-4.2933,-4.3012,-4.3055,-4.3069,-4.3134,-4.3148,-4.3222,-4.3167,-4.3191,-4.3253,-4.327,-4.3363,-4.3258,-4.3351,-4.3354,-4.334,-4.3548,-4.3581,-4.3739,-4.3479,-4.3483,-4.3485,0,-4.2803,-4.2862,-4.302,-4.3064,-4.3096,-4.3168,-4.3233,-4.3296,-4.3343,-4.3348,-4.3393,-4.3375,-4.3467,-4.3391,-4.3517,-4.3446,-4.3483,-4.3498,-4.3504,-4.3513,-4.3429,-4.3563,-4.3789,-4.3813,-4.352,-4.3517,-4.3515,0,-4.2943,-4.3062,-4.3172,-4.32,-4.3255,-4.3306,-4.3331,-4.3374,-4.3418,-4.3475,-4.3503,-4.3569,-4.3606,-4.3657,-4.3657,-4.3602,-4.3785,-4.3709,-4.3791,-4.3791,-4.3832,-4.3829,-4.4068,-4.3855,-4.3855,-4.3854,-4.3854,0,-4.313,-4.3228,-4.3236,-4.3303,-4.3412,-4.3405,-4.3512,-4.3532,-4.357,-4.364,-4.3612,-4.3678,-4.3673,-4.374,-4.374,-4.3844,-4.3861,-4.3867,-4.3866,-4.387,-4.3869,-4.3895,-4.3884,-4.3861,-4.3859,-4.3858,-4.3857,0,-4.3306,-4.3315,-4.3432,-4.3475,-4.3487,-4.3565,-4.3601,-4.3664,-4.3675,-4.3764,-4.3784,-4.3801,-4.3877,-4.3882,-4.397,-4.397,-4.4097,-4.4084,-4.4082,-4.4079,-4.4161,-4.4153,-4.4425,-4.446,-4.4224,-4.4226,-4.4228,0,-4.3425,-4.35,-4.355,-4.3595,-4.3624,-4.3697,-4.3741,-4.3737,-4.3784,-4.3843,-4.3899,-4.3974,-4.4033,-4.4157,-4.4176,-4.4243,-4.4231,-4.4321,-4.4241,-4.4243,-4.4233,-4.4229,-4.4236,-4.4337,-4.434,-4.4342,-4.4344,0,-4.3636,-4.3636,-4.3702,-4.377,-4.3823,-4.3876,-4.3925,-4.3963,-4.3965,-4.4019,-4.4097,-4.4143,-4.4233,-4.4307,-4.4373,-4.4397,-4.4371,-4.4369,-4.4391,-4.4397,-4.4393,-4.4396,-4.4125,-4.4363,-4.4361,-4.436,-4.4359,-4.4358,-4.3787,-4.3852,-4.3897,-4.3971,-4.4007,-4.4053,-4.4115,-4.4134,-4.4199,-4.4273,-4.4266,-4.4353,-4.4397,-4.4482,-4.4512,-4.4579,-4.4548,-4.458,-4.4589,-4.4597,-4.4606,-4.4381,-4.459,-4.459,-4.4589,-4.4589,-4.4588,0,-4.3996,-4.4024,-4.4092,-4.4161,-4.4219,-4.419,-4.4242,-4.4292,-4.4369,-4.4413,-4.4471,-4.4561,-4.4632,-4.4657,-4.4726,-4.4775,-4.4764,-4.4793,-4.4789,-4.4795,-4.4629,-4.4603,-4.48,-4.48,-4.48,-4.48,-4.48,-4.48,-4.4112,-4.422,-4.4226,-4.435,-4.4376,-4.4462,-4.4494,-4.4536,-4.4571,-4.4673,-4.4732,-4.4748,-4.4783,-4.4854,-4.4918,-4.4923,-4.495,-4.4984,-4.4984,-4.4828,-4.4807,-4.4787,-4.4762,-4.4989,-4.499,-4.5144,-4.5146,-4.5147]}]]